カタログに戻る

HIMAWARI 1

GMS 1

運用中気象GEO
NORAD 10143·PAYLOAD·🇯🇵 Japan

打ち上げ Jul 14, 1977 から Cape Canaveral Space Force Station

Loading…

TLE

最新Source: Space-Track

元期: Sep 14, 2026, 11:56 UTC

1 10143U 77065A   26257.49725303 -.00000317  00000-0  00000-0 0  9991
2 10143   6.3084 291.7606 0017767 252.5133 132.2780  0.99253215122118

AllMySatでHIMAWARI 1をリアルタイム追跡

Download on the App Store